Alpena, MI

5:51 AM EST on February 25, 2017 (GMT -0500)
Alpena County Regional

Weather History for KAPN - May, 2013

Change the Weather History Date:

Saturday, May 18, 2013

  Actual Average Record
Temperature  
Mean Temperature 50 °F 53 °F  
Max Temperature 60 °F 65 °F 90 °F (1962)
Min Temperature 40 °F 41 °F 22 °F (1925)
Degree Days  
Heating Degree Days 15 12  
Month to date heating degree days 231 265  
Since 1 July heating degree days 7472 7824  
Cooling Degree Days 0 0  
Month to date cooling degree days 1 0  
Year to date cooling degree days 1 2  
Moisture  
Dew Point 40 °F    
Average Humidity 68    
Maximum Humidity 89    
Minimum Humidity 47    
Precipitation  
Precipitation 0.00 in 0.09 in 0.71 in (1980)
Month to date precipitation 1.77 1.48  
Year to date precipitation 12.44 8.71  
Sea Level Pressure  
Sea Level Pressure 30.19 in    
Wind  
Wind Speed 4 mph (ESE)    
Max Wind Speed 10 mph    
Max Gust Speed 14 mph    
Visibility 10 miles    
Events      
T = Trace of Precipitation, MM = Missing Value Source: NWS Daily Summary

Daily Weather History Graph

Daily Weather History Graph

Search for Another Location

Airport or City:

Trip Planner

Search our weather history database for the weather conditions in past years. The results will help you decide how hot, cold, wet, or windy it might be!

Date:

Astronomy

May. 18, 2013 Rise Set
Actual Time 6:01 AM EDT 9:00 PM EDT
Civil Twilight 5:26 AM EDT 9:35 PM EDT
Nautical Twilight 4:42 AM EDT 10:20 PM EDT
Astronomical Twilight 3:49 AM EDT 11:13 PM EDT
Moon 1:44 PM EDT (5/18) 2:12 AM EDT (5/18)
Length of Visible Light 16h 08m
Length of Day
14h 59m
First Quarter, 55% of the Moon is Illuminated
May 18
First Quarter
May 25
Full
May 31
Last Quarter
Jun 8
New
Jun 16
First Quarter

Hourly Weather History & Observations

Time (EDT) Temp. Dew Point Humidity Pressure Visibility Wind Dir Wind Speed Gust Speed Precip Events Conditions
12:54 AM 50.0 °F 39.9 °F 68% 30.22 in 10.0 mi SSW 3.5 mph - N/A   Overcast
1:54 AM 50.0 °F 41.0 °F 71% 30.21 in 10.0 mi East 4.6 mph - N/A   Overcast
2:54 AM 48.9 °F 39.0 °F 69% 30.21 in 10.0 mi Calm Calm - N/A   Scattered Clouds
3:54 AM 46.9 °F 39.9 °F 77% 30.21 in 10.0 mi Calm Calm - N/A   Clear
4:54 AM 43.0 °F 39.0 °F 86% 30.23 in 10.0 mi Calm Calm - N/A   Clear
5:54 AM 43.0 °F 37.9 °F 82% 30.22 in 10.0 mi Calm Calm - N/A   Clear
6:54 AM 46.9 °F 37.9 °F 71% 30.23 in 10.0 mi Calm Calm - N/A   Clear
7:54 AM 48.9 °F 39.0 °F 69% 30.24 in 10.0 mi SE 3.5 mph - N/A   Mostly Cloudy
8:54 AM 50.0 °F 39.9 °F 68% 30.25 in 10.0 mi ESE 5.8 mph - N/A   Overcast
9:54 AM 52.0 °F 39.9 °F 63% 30.26 in 10.0 mi East 5.8 mph - N/A   Overcast
10:54 AM 54.0 °F 39.9 °F 59% 30.25 in 10.0 mi East 6.9 mph - N/A   Overcast
11:54 AM 59.0 °F 39.9 °F 49% 30.23 in 10.0 mi ESE 5.8 mph - N/A   Overcast
12:54 PM 57.9 °F 39.0 °F 49% 30.22 in 10.0 mi East 10.4 mph - N/A   Overcast
1:54 PM 57.0 °F 39.0 °F 51% 30.21 in 10.0 mi ESE 8.1 mph - N/A   Overcast
2:54 PM 54.0 °F 39.0 °F 57% 30.20 in 10.0 mi ESE 4.6 mph - N/A   Overcast
3:54 PM 53.1 °F 39.9 °F 61% 30.19 in 10.0 mi East 4.6 mph - N/A   Overcast
4:54 PM 54.0 °F 39.9 °F 59% 30.17 in 10.0 mi ESE 5.8 mph - N/A   Overcast
5:54 PM 55.0 °F 42.1 °F 62% 30.16 in 10.0 mi SE 6.9 mph - N/A   Overcast
6:54 PM 55.0 °F 42.1 °F 62% 30.14 in 10.0 mi East 8.1 mph - N/A   Scattered Clouds
7:54 PM 55.0 °F 41.0 °F 59% 30.14 in 10.0 mi SE 5.8 mph - N/A   Overcast
8:54 PM 52.0 °F 39.0 °F 61% 30.13 in 10.0 mi SE 5.8 mph - N/A   Overcast
9:54 PM 52.0 °F 41.0 °F 66% 30.12 in 10.0 mi Calm Calm - N/A   Mostly Cloudy
10:54 PM 51.1 °F 41.0 °F 68% 30.10 in 10.0 mi SE 4.6 mph - N/A   Partly Cloudy
11:54 PM 52.0 °F 41.0 °F 66% 30.09 in 10.0 mi SE 5.8 mph - N/A   Partly Cloudy